Weather History for Punta Gorda, FL

Change the Weather History Date:

Sunday, December 30, 2012

  Actual Average Record
Temperature  
Mean Temperature 52 °F -  
Max Temperature 61 °F 71 °F 84 °F (1996)
Min Temperature 42 °F 48 °F 36 °F (2000)
Degree Days  
Heating Degree Days 14    
Growing Degree Days 2 (Base 50)    
Moisture  
Dew Point 41 °F    
Average Humidity 69    
Maximum Humidity 86    
Minimum Humidity 41    
Precipitation  
Precipitation 0.00 in - - ()
Sea Level Pressure  
Sea Level Pressure 30.30 in    
Wind  
Wind Speed 11 mph (NNE)    
Max Wind Speed 17 mph    
Max Gust Speed 23 mph    
Visibility 10 miles    
Events      
Averages and records for this station are not official NWS values.
T = Trace of Precipitation, MM = Missing Value Source: NWS Daily Summary

Daily Weather History Graph

Daily Weather History Graph

Search for Another Location

Airport:

Trip Planner

Search our weather history database for the weather conditions in past years. The results will help you decide how hot, cold, wet, or windy it might be!

Date:

Astronomy

Dec. 30, 2012 Rise Set
Actual Time 7:16 AM EST 5:45 PM EST
Civil Twilight 6:51 AM EST 6:10 PM EST
Nautical Twilight 6:22 AM EST 6:39 PM EST
Astronomical Twilight 5:53 AM EST 7:07 PM EST
Moon 8:00 PM EST 8:37 AM EST
Length of Visible Light 11h 19m
Length of Day
10h 28m
Waning Gibbous, 95% of the Moon is Illuminated
Dec 30
Waning Gibbous
Jan 4
Last Quarter
Jan 11
New
Jan 18
First Quarter
Jan 26
Full

Hourly Weather History & Observations

Time (EST) Temp. Windchill Dew Point Humidity Pressure Visibility Wind Dir Wind Speed Gust Speed Precip Events Conditions
12:53 AM 53.1 °F - 48.9 °F 86% 30.19 in 10.0 mi NW 5.8 mph - N/A   Clear
1:53 AM 54.0 °F - 48.0 °F 80% 30.20 in 10.0 mi NNW 11.5 mph - N/A   Clear
2:53 AM 52.0 °F - 46.9 °F 83% 30.22 in 10.0 mi North 12.7 mph - N/A   Clear
3:53 AM 50.0 °F - 44.1 °F 80% 30.23 in 10.0 mi North 16.1 mph 23.0 mph N/A   Clear
4:53 AM 46.0 °F 39.9 °F 39.0 °F 76% 30.25 in 10.0 mi North 13.8 mph 23.0 mph N/A   Clear
5:53 AM 44.1 °F 37.4 °F 37.9 °F 79% 30.29 in 10.0 mi North 13.8 mph - N/A   Clear
6:53 AM 42.1 °F 36.1 °F 37.0 °F 82% 30.31 in 10.0 mi NNE 10.4 mph - N/A   Clear
7:53 AM 43.0 °F 35.4 °F 37.0 °F 80% 30.32 in 10.0 mi NNE 16.1 mph - N/A   Clear
8:53 AM 45.0 °F 37.6 °F 36.0 °F 71% 30.34 in 10.0 mi NNE 17.3 mph - N/A   Clear
9:53 AM 48.9 °F - 35.1 °F 59% 30.36 in 10.0 mi NE 16.1 mph - N/A   Clear
10:53 AM 51.1 °F - 35.1 °F 54% 30.36 in 10.0 mi NE 12.7 mph - N/A   Clear
11:53 AM 55.0 °F - 35.1 °F 47% 30.34 in 10.0 mi ENE 13.8 mph - N/A   Clear
12:53 PM 57.9 °F - 36.0 °F 44% 30.31 in 10.0 mi ENE 11.5 mph - N/A   Clear
1:53 PM 60.1 °F - 36.0 °F 41% 30.29 in 10.0 mi NE 12.7 mph - N/A   Clear
2:53 PM 61.0 °F - 37.0 °F 41% 30.29 in 10.0 mi ENE 13.8 mph - N/A   Clear
3:53 PM 60.1 °F - 37.9 °F 44% 30.29 in 10.0 mi ENE 15.0 mph 20.7 mph N/A   Clear
4:53 PM 59.0 °F - 39.9 °F 49% 30.31 in 10.0 mi ENE 11.5 mph - N/A   Clear
5:53 PM 53.1 °F - 43.0 °F 69% 30.32 in 10.0 mi ENE 8.1 mph - N/A   Clear
6:53 PM 52.0 °F - 44.1 °F 74% 30.35 in 10.0 mi NE 9.2 mph - N/A   Clear
7:53 PM 52.0 °F - 45.0 °F 77% 30.34 in 10.0 mi ENE 8.1 mph - N/A   Clear
8:53 PM 48.0 °F - 44.1 °F 86% 30.34 in 10.0 mi NNE 5.8 mph - N/A   Clear
9:53 PM 48.0 °F - 44.1 °F 86% 30.34 in 10.0 mi NNE 6.9 mph - N/A   Clear
10:53 PM 48.9 °F - 44.1 °F 83% 30.34 in 10.0 mi NE 6.9 mph - N/A   Clear
11:53 PM 48.0 °F - 44.1 °F 86% 30.33 in 10.0 mi NE 6.9 mph - N/A   Clear